DateTimeUTC,F1_A11,F1_S11,BsB_S11,BsG_S11,BsR_S11,BbsB_S11,BbsG_S11,BbsR_S11,BaB_A11,BaG_A11,BaR_A11,Tu_S11,T_S11,Uu_S11,U_S11,P_S11,T1_A11
2021-05-31T18:00:00Z,00000200,20000000,,,,,,,-000.31,-000.33,-000.18,19.0,25.6,03.6,02.4,0658.0,31.1
2021-05-31T18:01:00Z,00000200,20000000,,,,,,,0000.03,-000.08,0000.13,19.0,25.6,03.6,02.4,0658.0,31.1
2021-05-31T18:02:00Z,00000200,20000000,,,,,,,0000.08,0000.06,0000.31,19.0,25.6,03.6,02.4,0658.0,31.1
2021-05-31T18:03:00Z,00000200,60000000,,,,,,,0000.48,0000.11,-000.25,19.0,25.6,03.6,02.4,0658.0,31.1
2021-05-31T18:04:00Z,00000200,40000000,0000.04,0000.50,0000.24,0000.37,0000.37,0000.27,-000.09,0000.00,0000.47,19.1,25.5,03.8,02.6,0659.0,31.1
2021-05-31T18:05:00Z,00000200,00000000,0000.00,0000.25,-000.01,0000.20,0000.11,0000.06,0000.16,0000.14,-000.29,19.1,25.4,03.9,02.7,0659.0,31.1
2021-05-31T18:06:00Z,00000200,00000000,-000.07,0000.23,0000.37,0000.44,0000.29,0000.20,-000.17,0000.12,-000.14,19.1,25.4,03.9,02.7,0659.1,31.1
2021-05-31T18:07:00Z,00000200,00000000,0000.04,0000.49,-000.06,0000.41,0000.21,0000.13,-000.23,-000.00,0000.40,19.2,25.4,03.9,02.7,0659.1,31.1
2021-05-31T18:08:00Z,00000200,00000000,0000.30,0000.46,0000.08,0000.40,0000.19,-000.01,0000.11,0000.04,-000.45,19.2,25.4,03.7,02.5,0659.1,31.1
2021-05-31T18:09:00Z,00000200,00000000,0000.52,0000.65,0000.23,0000.03,0000.32,-000.03,0000.27,-000.07,0000.27,19.2,25.4,03.7,02.5,0659.1,31.1
2021-05-31T18:10:00Z,00000200,00000000,-000.01,0000.49,0000.25,0000.48,0000.55,-000.04,-000.01,0000.33,0000.33,19.2,25.4,03.7,02.5,0659.1,31.1
2021-05-31T18:11:00Z,00000200,00000000,-000.08,0000.35,0000.21,0000.77,0000.53,-000.05,0000.09,-000.05,0000.11,19.2,25.4,03.7,02.5,0659.1,31.1
2021-05-31T18:12:00Z,00000200,00000000,0000.43,0000.89,0000.17,0000.44,0000.29,-000.16,-000.03,0000.17,-000.14,19.1,25.4,03.6,02.5,0659.1,31.1
2021-05-31T18:13:00Z,00000200,00000000,0000.40,0000.50,0000.38,0000.54,0000.23,0000.24,0000.21,0000.19,0000.12,19.1,25.4,03.8,02.6,0659.2,31.1
2021-05-31T18:14:00Z,00000200,00000000,0000.22,0000.42,0000.15,0000.34,0000.17,0000.16,0000.35,0000.33,0000.07,19.1,25.4,03.9,02.7,0659.2,31.1
2021-05-31T18:15:00Z,00000200,00000000,0000.82,0000.45,0000.11,0000.32,0000.31,0000.19,-000.16,-000.03,-000.06,19.1,25.4,03.9,02.7,0659.2,31.1
2021-05-31T18:16:00Z,00000200,00000000,0000.48,0000.46,0000.27,0000.23,0000.24,0000.18,0000.29,-000.39,0000.10,19.1,25.4,03.9,02.6,0659.2,31.1
2021-05-31T18:17:00Z,00000200,00000000,0000.62,0000.37,0000.02,0000.66,0000.25,0000.11,0000.03,0000.87,0000.19,19.2,25.4,03.9,02.7,0659.2,31.1
2021-05-31T18:18:00Z,00000200,00000000,-000.50,0000.19,-000.07,0000.06,0000.21,0000.03,0000.13,-000.19,-000.06,19.1,25.4,03.9,02.7,0659.2,31.1
2021-05-31T18:19:00Z,00000200,00000000,-000.15,0000.33,-000.21,0000.09,0000.35,-000.23,0000.12,-000.09,0000.43,19.2,25.3,04.0,02.7,0659.2,31.1
2021-05-31T18:20:00Z,00000200,00000000,0000.42,0000.12,0000.11,0000.40,0000.56,0000.17,0000.02,0000.11,-000.08,19.1,25.3,03.9,02.7,0659.2,31.1
2021-05-31T18:21:00Z,00000200,00000000,-000.00,0000.33,-000.05,-000.31,0000.35,0000.14,0000.22,0000.11,0000.18,19.1,25.3,04.1,02.8,0659.2,31.1
2021-05-31T18:22:00Z,00000200,00000000,0000.05,0000.33,-000.15,0000.41,0000.25,0000.31,-000.07,0000.48,0000.20,19.1,25.3,04.0,02.8,0659.2,31.1
2021-05-31T18:23:00Z,00000200,00000000,-000.10,0000.52,0000.06,0000.31,0000.31,0000.27,0000.26,0000.24,0000.05,19.1,25.3,04.0,02.8,0659.3,31.1
2021-05-31T18:24:00Z,00000200,00000000,0000.12,0000.34,0000.08,0000.20,0000.29,-000.00,0000.02,-000.42,-000.19,19.1,25.3,04.1,02.8,0659.3,31.1
2021-05-31T18:25:00Z,00000200,00000000,0000.03,0000.72,0000.11,0000.56,0000.30,0000.02,0000.09,0000.15,0000.05,19.1,25.3,04.1,02.8,0659.3,31.1
2021-05-31T18:26:00Z,00000200,00000000,0000.02,0000.52,0000.19,-000.00,0000.11,0000.31,0000.18,-000.23,0000.16,19.1,25.3,04.2,02.9,0659.3,31.1
2021-05-31T18:27:00Z,00000200,00000000,0000.17,0000.67,0000.14,-000.31,0000.20,0000.26,-000.27,0000.20,-000.00,19.1,25.3,04.1,02.8,0659.2,31.1
2021-05-31T18:28:00Z,00000200,00000000,0000.51,0000.20,-000.07,0000.34,0000.11,0000.17,0000.27,0000.16,0000.25,19.1,25.3,04.2,02.9,0659.3,31.1
2021-05-31T18:29:00Z,00000200,00000000,0000.14,0000.39,0000.06,0000.28,0000.48,0000.21,0000.15,0000.06,-000.05,19.1,25.3,04.2,02.9,0659.3,31.1
2021-05-31T18:30:00Z,00000200,00000000,0000.27,0000.06,-000.01,0000.30,0000.19,-000.14,-000.07,0000.18,0000.01,19.1,25.3,04.2,02.9,0659.3,31.1
2021-05-31T18:31:00Z,00000200,00000000,-000.46,0000.56,0000.00,0000.30,0000.21,0000.27,-000.07,0000.12,0000.05,19.1,25.3,04.2,02.9,0659.3,31.1
2021-05-31T18:32:00Z,00000200,00000000,0000.05,0000.20,-000.03,0000.09,0000.19,0000.24,0000.19,-000.32,-000.12,19.1,25.3,04.1,02.8,0659.3,31.1
2021-05-31T18:33:00Z,00000200,00000000,0000.09,0000.19,-000.08,0000.55,0000.09,0000.12,-000.24,0000.15,-000.05,19.1,25.3,04.1,02.8,0659.3,31.1
2021-05-31T18:34:00Z,00000200,00000000,0000.79,0000.39,0000.03,0000.52,0000.27,0000.10,0000.38,0000.13,0000.05,19.1,25.3,04.1,02.8,0659.3,31.1
2021-05-31T18:35:00Z,00000200,00000000,0000.21,0000.25,-000.11,0000.75,0000.46,0000.06,-000.30,-000.36,-000.14,19.1,25.3,04.1,02.8,0659.3,31.1
2021-05-31T18:36:00Z,00000200,00000000,-000.14,0000.29,0000.11,0000.09,0000.61,0000.25,0000.17,0000.27,-000.13,19.1,25.3,04.1,02.8,0659.3,31.1
2021-05-31T18:37:00Z,00000200,00000000,0000.26,-000.07,0000.05,0000.98,0000.09,0000.04,0000.12,-000.23,0000.09,19.1,25.2,04.1,02.8,0659.3,31.1
2021-05-31T18:38:00Z,00000200,00000000,0000.82,0000.23,0000.06,0000.26,0000.39,0000.04,0000.11,0000.40,0000.49,19.1,25.2,04.1,02.8,0659.3,31.1
2021-05-31T18:39:00Z,00000200,00000000,0000.71,0000.32,0000.24,0000.29,0000.33,0000.18,-000.32,-000.11,0000.03,19.1,25.2,04.1,02.8,0659.3,31.1
2021-05-31T18:40:00Z,00000200,00000000,-000.30,0000.40,0000.08,0000.47,0000.11,-000.15,0000.03,-000.20,-000.28,19.1,25.2,04.1,02.8,0659.2,31.1
2021-05-31T18:41:00Z,00000200,00000000,0000.24,0000.58,-000.08,-000.51,0000.60,0000.30,0000.18,0000.37,0000.12,19.0,25.2,04.1,02.8,0659.3,31.1
2021-05-31T18:42:00Z,00000200,00000000,-000.18,0000.22,-000.09,0000.78,0000.48,0000.35,0000.18,0000.07,0000.18,19.1,25.2,04.0,02.8,0659.3,31.0
2021-05-31T18:43:00Z,00000200,00000000,-000.75,0000.22,-000.06,0001.11,0000.20,0000.04,-000.06,-000.17,-000.22,19.0,25.2,04.1,02.8,0659.3,31.1
2021-05-31T18:44:00Z,00000200,00000000,-000.58,0000.24,0000.27,0000.77,0000.12,0000.23,0000.11,-000.06,0000.02,19.0,25.2,04.3,02.9,0659.3,31.1
2021-05-31T18:45:00Z,00000200,00000000,0000.43,0000.22,0000.31,0000.08,0000.38,0000.36,0000.09,0000.35,0000.06,19.0,25.2,04.1,02.8,0659.3,31.1
2021-05-31T18:46:00Z,00000200,00000000,0000.14,0000.24,0000.16,0000.75,0000.25,0000.28,0000.26,-000.09,0000.21,19.0,25.2,04.1,02.8,0659.3,31.0
2021-05-31T18:47:00Z,00000200,00000000,0000.39,0000.38,0000.19,-000.01,0000.44,-000.25,-000.12,0000.01,-000.31,19.0,25.2,04.2,02.9,0659.4,31.1
2021-05-31T18:48:00Z,00000200,00000000,0000.01,0000.31,0000.12,0000.30,0000.33,0000.11,-000.11,-000.05,0000.40,19.0,25.2,04.2,02.9,0659.4,31.1
2021-05-31T18:49:00Z,00000200,00000000,-000.22,0000.57,-000.15,0000.47,0000.08,-000.03,0000.29,0000.39,0000.06,19.0,25.2,04.2,02.9,0659.4,31.0
2021-05-31T18:50:00Z,00000200,00000000,0000.51,0000.31,-000.30,0000.43,0000.15,0000.22,-000.12,-000.44,-000.27,19.0,25.2,04.2,02.9,0659.4,31.1
2021-05-31T18:51:00Z,00000200,00000000,0000.44,0000.07,0000.03,-000.05,0000.22,-000.00,-000.11,0000.12,0000.45,19.0,25.2,04.2,02.9,0659.4,31.1
2021-05-31T18:52:00Z,00000200,00000000,0000.69,0000.18,0000.14,0000.18,0000.30,0000.06,-000.14,0000.12,-000.24,19.0,25.2,04.2,02.9,0659.3,31.1
2021-05-31T18:53:00Z,00000200,00000000,0000.40,0000.38,0000.11,0000.57,0000.82,0000.25,0000.57,-000.06,-000.13,19.0,25.2,04.1,02.8,0659.3,31.1
2021-05-31T18:54:00Z,00000200,00000000,0000.52,0000.21,0000.17,0000.20,0000.27,0000.10,-000.09,0000.22,0000.30,19.0,25.2,04.1,02.8,0659.3,31.1
2021-05-31T18:55:00Z,00000200,00000000,0000.29,0000.63,0000.25,0000.52,0000.20,-000.22,-000.30,-000.44,0000.07,19.0,25.2,04.0,02.7,0659.3,31.1
2021-05-31T18:56:00Z,00000200,00000000,0000.36,0000.83,0000.31,0000.05,0000.21,0000.19,0000.05,0000.45,-000.07,19.0,25.2,04.1,02.8,0659.3,31.1
2021-05-31T18:57:00Z,00000200,40000000,,,,,,,0000.10,0000.28,0000.27,19.1,25.2,04.4,03.0,0659.4,31.1
2021-05-31T18:58:00Z,00000200,60000000,,,,,,,0000.03,-000.26,-000.12,18.8,25.3,03.9,02.6,0658.4,31.0
2021-05-31T18:59:00Z,00000200,20000000,,,,,,,-000.10,-000.16,-000.19,18.7,25.4,03.9,02.6,0658.4,31.1
